Regional Weather Roundup
Issued by NWS Newport/Morehead, NC

Current Version | Previous Version | Graphics & Text | Print | Product List | Glossary Off
Versions: 1 2 3 4 5 6 7 8 9 10 11 12 13 14 15 16 17 18 19 20 21 22 23 24 25 26 27 28 29 30 31 32 33 34 35 36 37 38 39 40 41 42 43 44 45 46 47 48 49 50

000
ASUS42 KMHX 200925
RWRMHX
WEATHER ROUNDUP FOR EASTERN NORTH CAROLINA
NATIONAL WEATHER SERVICE NEWPORT/MOREHEAD CITY NC
400 AM EST MON FEB 20 2017

NOTE: "FAIR" INDICATES FEW OR NO CLOUDS BELOW 12,000 FEET
WITH NO SIGNIFICANT WEATHER AND/OR OBSTRUCTIONS TO VISIBILITY

NCZ015>017-031-032-045>047-102-103-201000-
NORTH COAST

CITY           SKY/WX    TMP DP  RH WIND       PRES   REMARKS
EDENTON        CLEAR     50  43  76 N5        30.10R
ELIZABETH CITY CLEAR     49  45  86 N3        30.08R
KITTY HAWK     NOT AVBL
MANTEO         CLEAR     43  42  98 N6        30.07R

$$

NCZ045>047-081-094-103-104-201000-
CENTRAL COAST

CITY           SKY/WX    TMP DP  RH WIND       PRES   REMARKS
FRISCO         CLEAR     52  47  83 N6        30.04F

$$

NCZ095-097-098-100-101-201000-
SOUTHERN COAST

CITY           SKY/WX    TMP DP  RH WIND       PRES   REMARKS
BEAUFORT       CLEAR     52  48  86 NW7       30.07R
CEDAR ISLAND   NOT AVBL
JACKSONVILLE   CLEAR     48  44  86 W3        30.09R
PINEY ISLAND   SUNNY    N/A N/A N/A W9        30.06R
WILMINGTON     CLEAR     48  46  93 W5        30.10R


$$

NCZ011>013-027>030-043-044-078>080-089-090>093-098-201000-
COASTAL PLAIN

CITY           SKY/WX    TMP DP  RH WIND       PRES   REMARKS
AHOSKIE          N/A     42  39  91 CALM      30.11R
CLINTON        CLEAR     46  46 100 CALM      30.13R
ELIZABETHTOWN  CLEAR     52  45  75 NW3       30.12R
GOLDSBORO      CLEAR     51  45  82 CALM      30.10R
GREENVILLE     CLEAR     46  39  76 CALM      30.12R
HAVELOCK       CLEAR     46  43  89 W3        30.08R
KENANSVILLE    NOT AVBL
KINSTON        CLEAR     51  43  73 N5        30.12R
NEW BERN       CLEAR     46  45  96 CALM      30.09R
RICHLANDS      CLEAR     41  40  96 CALM      30.10R
ROCKY MOUNT    CLEAR     48  42  80 VRB3      30.12R
WASHINGTON     CLEAR     49  42  78 N3        30.10R
WHITEVILLE     CLEAR     48  45  88 CALM      30.12R

$$

AMZ130-135-150-152-154-156-158-170-250-252-270-ANZ085-086-088-633-658-670-201000-
MARINE OBSERVATIONS

STATION/POSITION TIME  TEMP    WIND        PRES    WAVE   SWELL
                       AIR SEA DIR/SP/G            HT/PER HT/PER
                 (UTC) (F)     (DEG/KT/KT) (MB)    (FT/S) (FT/S)
CHESAPEAKE LIGHT NOT AVBL
64 E VA BEACH    0850   53 51  300/  8/ 10 1016.9    1/ 7   2/ 7
DUCK             0900   54 47  330/  7/  8 1017.5
2 E DUCK         0900      48                N/A     1/ 7
OREGON INLET     0900   49 52  340/  4/  5 1017.6
13E OREGON INLT  NOT AVBL
HATTERAS CG      0900   54 56  350/  3/  4 1017.1
DIAMOND BUOY     0850   63 66  340/  8/ 10 1017.2    1/ 7   2/ 7
CAPE LOOKOUT     0900   56     310/  6/  7 1017.6
BEAUFORT LAB     0900   54 53  330/  3/  5 1017.3
30 SE NEW RVR IN 0808   62     360/ 12/ 16 1017.8
30 SE NEW RVR IN 0843      63                N/A     2/ 7
27 SE WRIGHTSVLE 0808   59 61  340/  8/ 12 1017.2
5 SE WRIGHTSVLE  0808   57 56  320/ 10/ 14 1018.3
225 S CAPE HAT   0850   70 72   10/ 19/ 21 1015.3    6/ 7
41 SE CHARLESTON 0850   65 69  330/  8/ 10 1018.7    1/ 6

$$



USA.gov is the U.S. government's official web portal to all federal, state and local government web resources and services.